Погода в Горном

Россия / Забайкальский край     51°33′19″N   113°02′13″E
темп.,
°C
ветер,
м/с
пор.,
м/с
влажн.,
%
обл.,
%
осадки,
мм/ч
давл.,
гПа
погр.,
м
18 апреля, вс
вс1800:00+5ююз11441 0.0 100310
03:00+3ююз22505 0.0 100310
06:00+2ю2254100 0.0 100310
09:00+7зсз5104298 0.0 1005878
12:00+9сз8113261 0.0 10081805
15:00+9зсз1014170 0.0 10102412
18:00+5сз913145 0.0 10142287
21:000сз510170 0.0 1019577
19 апреля, пн
пн1900:00−4сз22280 0.0 102235
03:00−6з11365 0.0 102510
06:00−8ююв11415 0.0 102610
09:00−2юв1225100 0.0 1024432
12:00+4ю2315100 0.0 10201230
15:00+8сз341698 0.0 10151323
18:00+10юв12184 0.0 10121033
21:00+4вюв3829100 0.0 1013145
20 апреля, вт
вт2000:00+2вюв22375 0.0 101118
03:000вюв21555 0.0 101012
06:000юв216664 0.0 100913
09:00+6ююв2341100 0.0 1006208
12:00+14зсз3529100 0.0 1003672
15:00+18з3621100 0.0 10011919
18:00+17з3522100 0.0 10011431
21:00+9ююв11470 0.0 100310
21 апреля, ср
ср2100:00+6ссз11552 0.0 100510
03:00+4сз11585 0.0 100714
06:00+2сз116797 0.0 100910
09:00+6с234726 0.0 1007447
12:00+12ссз33365 0.0 10071295
15:00+14сз4435100 0.0 10061710
18:00+14ссз443494 0.0 10061841
21:00+7ссз495196 0.0 1011374
22 апреля, чт
чт2200:00+3зсз477396 0.0 1016444
03:00+2зсз4774100 0.0 1019637
06:00+1сз3771100 0.0 1022717
09:00+2ссз455592 0.0 1023797
12:00+7ссв3435100 0.0 10221294
15:00+10с442593 0.0 10221768
18:00+10ссв4323100 0.0 10221743
21:00+6ссв2228100 0.0 102632